DW4230 Weather Reports


Display with metric or nautical units.
time (UTC)temp
F
wind
direction
speed
MPH
gust
MPH
rain 1hr
in
rain 24hr
in
rain mn
in
humidity
%
barometer
mb
20260901070013 68 124 0.0 4.0 0.00 0.01 0.00 86 1016.3
20260901064553 68 124 0.0 3.0 0.00 0.01 0.00 86 1016.5
20260901063044 68 124 1.0 7.0 0.00 0.01 0.00 85 1016.4
20260901061609 68 124 0.0 3.0 0.00 0.01 0.00 84 1016.5
20260901060029 68 210 1.0 5.0 0.00 0.01 0.00 82 1016.4
20260901054608 68 231 3.0 7.0 0.00 0.01 0.00 82 1016.4
20260901053036 68 200 1.0 4.0 0.00 0.15 0.00 81 1016.5
20260901051606 68 124 2.0 5.0 0.00 0.15 0.00 80 1016.5
20260901050032 68 124 3.0 8.0 0.00 0.15 0.00 81 1016.6
20260901044603 68 241 1.0 7.0 0.00 0.15 0.00 83 1016.8
20260901043031 68 124 2.0 8.0 0.00 0.63 0.15 84 1016.9
20260901041603 68 124 2.0 5.0 0.00 0.63 0.15 84 1016.9
20260901040026 68 193 1.0 5.0 0.00 0.63 0.15 85 1016.8
20260901033041 68 226 1.0 6.0 0.00 0.69 0.15 84 1017.0
20260901031507 68 124 1.0 6.0 0.00 0.69 0.15 83 1017.0
20260901030045 68 124 3.0 7.0 0.00 0.69 0.15 83 1017.0
20260901024509 68 124 3.0 8.0 0.00 0.69 0.15 83 1017.0
20260901023048 68 124 3.0 7.0 0.00 0.69 0.15 84 1017.3
20260901021510 68 191 1.0 5.0 0.00 0.69 0.15 85 1017.2
20260901020051 68 124 3.0 9.0 0.00 0.69 0.15 86 1017.3
20260901014509 68 124 2.0 4.0 0.00 0.69 0.15 87 1017.2
20260901013041 68 124 2.0 8.0 0.00 0.69 0.15 87 1017.2
20260901010045 68 124 0.0 6.0 0.00 0.69 0.15 86 1017.4
20260901004518 68 124 2.0 7.0 0.00 0.69 0.15 86 1017.3
20260901003040 68 124 1.0 9.0 0.00 0.69 0.15 85 1017.5
20260901001515 68 209 2.0 6.0 0.00 0.69 0.15 85 1017.6
20260901000046 68 124 1.0 5.0 0.00 0.69 0.15 86 1017.5
20260831234512 68 124 1.0 8.0 0.00 0.69 0.15 86 1017.5
20260831233059 68 124 1.0 5.0 0.00 0.69 0.15 86 1017.4
20260831231521 69 124 2.0 8.0 0.00 0.69 0.15 85 1017.4
20260831230104 69 124 2.0 9.0 0.00 0.69 0.15 85 1017.5
20260831224526 69 124 3.0 8.0 0.00 0.69 0.15 85 1017.5
20260831223023 70 124 1.0 5.0 0.00 0.69 0.15 83 1017.5
20260831221547 70 124 0.0 5.0 0.00 0.69 0.15 84 1017.6
20260831220007 71 124 1.0 7.0 0.00 0.69 0.15 83 1017.5
20260831214556 72 124 1.0 6.0 0.00 0.69 0.15 81 1017.6
20260831213009 72 124 3.0 6.0 0.00 0.69 0.15 80 1017.7
20260831211554 72 124 3.0 5.0 0.00 0.69 0.15 81 1017.7
20260831210032 72 124 2.0 7.0 0.00 0.69 0.15 82 1017.4
20260831204609 72 124 0.0 6.0 0.00 0.69 0.15 81 1017.4
20260831203028 74 234 4.0 9.0 0.00 0.69 0.15 77 1017.8
20260831201505 74 124 5.0 10.0 0.00 0.69 0.15 77 1017.6
20260831200042 75 198 1.0 7.0 0.00 0.69 0.15 68 1017.7
20260831194607 74 124 2.0 4.0 0.00 0.69 0.15 70 1017.8
20260831193028 73 150 0.0 6.0 0.00 0.69 0.15 71 1017.6
20260831191554 73 148 0.0 5.0 0.00 0.69 0.15 70 1018.0
20260831190011 73 148 1.0 5.0 0.00 0.69 0.15 66 1018.0
20260831184550 73 147 1.0 5.0 0.00 0.69 0.15 64 1018.3
20260831183014 73 145 2.0 5.0 0.00 0.69 0.15 68 1017.9
20260831181608 73 86 3.0 7.0 0.00 0.69 0.15 64 1018.1
20260831180037 74 189 2.0 7.0 0.00 0.69 0.15 63 1018.4
20260831174503 74 146 3.0 7.0 0.00 0.69 0.15 63 1018.1
20260831173038 72 153 1.0 6.0 0.00 0.69 0.15 65 1018.3
20260831171609 73 104 2.0 8.0 0.00 0.69 0.15 68 1018.4
20260831170035 72 119 2.0 6.0 0.00 0.69 0.15 69 1018.6
20260831164614 72 147 3.0 9.0 0.00 0.69 0.15 68 1018.6
20260831163037 72 156 4.0 11.0 0.00 0.69 0.15 68 1018.6
20260831161505 72 72 5.0 9.0 0.00 0.69 0.15 73 1018.7
20260831160028 71 96 5.0 11.0 0.00 0.69 0.15 76 1018.6
20260831154613 70 68 5.0 11.0 0.00 0.69 0.15 77 1019.1
20260831153031 71 64 3.0 10.0 0.00 0.69 0.15 78 1019.1
20260831151600 70 54 4.0 9.0 0.00 0.69 0.15 78 1018.9
20260831150019 70 75 2.0 8.0 0.00 0.69 0.15 78 1019.0
20260831144536 70 29 4.0 9.0 0.00 0.69 0.15 77 1019.0
20260831143114 70 66 4.0 10.0 0.00 0.69 0.15 79 1018.8
20260831141539 70 37 5.0 10.0 0.00 0.69 0.15 82 1018.9
20260831140003 69 60 5.0 11.0 0.00 0.69 0.15 85 1018.7
20260831134546 69 100 5.0 11.0 0.00 0.69 0.15 85 1018.4
20260831133007 69 37 5.0 11.0 0.00 0.69 0.15 86 1018.3
20260831131557 68 31 5.0 12.0 0.00 0.69 0.15 87 1018.3
20260831130007 68 44 4.0 10.0 0.00 0.69 0.15 88 1018.3
20260831124545 68 62 4.0 10.0 0.00 0.69 0.15 88 1018.4
20260831123006 68 73 5.0 10.0 0.00 0.69 0.15 89 1018.4
20260831121550 67 60 1.0 6.0 0.00 0.69 0.15 91 1018.2
20260831120017 66 41 3.0 9.0 0.00 0.69 0.15 91 1018.2
20260831114554 66 68 4.0 9.0 0.00 0.69 0.15 93 1018.1
20260831113021 66 48 3.0 8.0 0.00 0.69 0.15 94 1017.9
20260831111605 66 51 3.0 7.0 0.00 0.69 0.15 94 1017.8
20260831110033 66 65 3.0 6.0 0.00 0.69 0.15 95 1017.7
20260831104513 66 79 2.0 6.0 0.01 0.69 0.15 95 1017.5
20260831103038 66 43 2.0 5.0 0.01 0.69 0.15 95 1017.7
20260831101609 66 53 3.0 7.0 0.01 0.69 0.15 94 1017.0
20260831100047 66 48 2.0 6.0 0.01 0.69 0.15 94 1016.9
20260831094522 66 67 2.0 7.0 0.00 0.68 0.14 94 1016.8
20260831093056 66 50 2.0 5.0 0.00 0.68 0.14 94 1016.7
20260831091521 66 5 2.0 6.0 0.00 0.68 0.14 95 1016.6
20260831090123 66 40 2.0 6.0 0.00 0.68 0.14 95 1016.4
20260831084525 67 356 2.0 7.0 0.00 0.68 0.14 95 1016.4
20260831083112 67 21 2.0 5.0 0.00 0.68 0.14 95 1016.4
20260831081521 67 353 3.0 7.0 0.00 0.68 0.14 95 1016.1
20260831080123 67 355 3.0 6.0 0.00 0.68 0.14 95 1016.1
20260831074503 68 360 0.0 7.0 0.00 0.68 0.14 95 1015.9
20260831073041 68 73 0.0 3.0 0.00 0.68 0.14 95 1015.8
20260831071606 68 73 1.0 3.0 0.00 0.68 0.14 95 1015.6